Starlink 3853

operational
NORAD ID: 52359 Int'l Des: 2022-045 Owner: SPXS Country: US Constellation: starlink
LEOCIRCULAR

Starlink 3853について

説明を読み込み中...

リアルタイム位置

3D地球を読み込み中...

次回通過

高度履歴

Altitude vs Time

uPlot chart will show altitude changes over time

軌道要素

1 52359U 22045AE 25352.60101070 .00001417 00000-0 10710-3 0 9994
2 52359 53.2159 203.1501 0001517 87.6798 272.4368 15.08845134203547
Epoch: Dec 18, 2025 • Age: 11 hours

現在のステータス

高度 549.8 km
速度 7.59 km/s
衛星直下点 -30.75°S, 54.41°W
打ち上げ日 Apr 29, 2022
運用期間 3.6 years
タイプ internet

技術仕様

分類 Payload
質量 297.00 kg
乾燥質量 275.00 kg
総質量 297.00 kg
長さ 0.20 m
直径 2.80 m
スパン 9.00 m
形状 Box + pan
製造者 SPXS
バスタイプ Starlink
フェーズステータス In Orbit
所有者/国 SPXS/US

大規模コンステレーション

Loading constellations...